Starlink 2373

operational
NORAD ID: 47796 Int'l Des: 2021-018 Owner: SPXS Country: US Constellation: starlink
LEOCIRCULARSTARLINK_TYPE

Starlink 2373について

説明を読み込み中...

リアルタイム位置

3D地球を読み込み中...

次回通過

高度履歴

Altitude vs Time

uPlot chart will show altitude changes over time

軌道要素

1 47796U 21018K 25302.82231177 .00002624 00000-0 19494-3 0 9992
2 47796 53.0542 99.1041 0001183 82.4225 277.6899 15.06411269257157
Epoch: Oct 29, 2025 • Age: 18 hours

現在のステータス

高度 549.5 km
速度 7.59 km/s
衛星直下点 37.13°N, 110.84°W
打ち上げ日 Mar 11, 2021
運用期間 4.6 years
タイプ internet

技術仕様

分類 Payload
質量 260.00 kg
乾燥質量 248.00 kg
総質量 260.00 kg
長さ 0.20 m
直径 2.80 m
スパン 9.00 m
形状 Box + pan
製造者 SPXS
バスタイプ Starlink
フェーズステータス In Orbit
所有者/国 SPXS/US

大規模コンステレーション

Loading constellations...